Location: Feydey
(46.3431°N, 7.0106°E)
Time: 05:58:56
(UTC+00:00)

Cosmos 1455 - Pass Details

Date: 20 June 2021
Orbit: 496 x 522 km, 82.5° (Epoch: 28 July)

Event Time Altitude Azimuth Distance (km) Brightness Sun altitude
Rises 22:22:53 0° 348° (NNW) 2,644 7.5 -18.4°
Reaches altitude 10° 22:25:02 10° 346° (NNW) 1,747 6.2 -18.5°
Maximum altitude 22:28:51 68° 264° (W) 554 2.3 -18.7°
Enters shadow 22:29:47 47° 200° (SSW) 687 2.4 -18.7°
